User: anonymous   Login
Location: Stockholm
(59.3330°N, 18.0500°E)
Time: 09:47:35
(UTC+01:00)
Language:

FENGYUN 1C DEB - Orbit

View from above orbital plane
View from above orbital plane
View from above satellite
View from above satellite

Ground track
Ground track

The orbit data is extracted from the following two-line orbital elements,

1 31888U 99025CKP 23333.46943424  .00006680  00000-0  30262-2 0  9998
2 31888  99.1767 212.9980 0024540 189.5526 170.5186 14.22117725852253
Epoch (UTC): 29 November 2023 11:15:59
Eccentricity: 0.0024540
inclination: 99.1767°
perigee height: 800 km
apogee height: 836 km
right ascension of ascending node: 212.9980°
argument of perigee: 189.5526°
revolutions per day: 14.22117725
mean anomaly at epoch: 170.5186°
orbit number at epoch: 85225

The dashed part of the orbit path shows where the satellite is in the earth's shadow,  

DLR